DW7087 Weather Reports


time (UTC)temp
C
wind
direction
speed
KPH
gust
KPH
rain 1hr
cm
rain 24hr
cm
rain mn
cm
humidity
%
barometer
mb
20260507093628 16 151 6.4 6.4 0.00 0.00 0.00 53 1016.1
20260507092707 15 152 4.8 6.4 0.00 0.00 0.00 55 1016.1
20260507091807 15 258 4.8 8.0 0.00 0.00 0.00 61 1016.1
20260507090907 14 221 3.2 4.8 0.00 0.00 0.00 63 1016.0
20260507090007 14 177 1.6 6.4 0.00 0.00 0.00 62 1016.2
20260507085407 14 95 1.6 6.4 0.00 0.00 0.00 65 1016.2
20260507084507 14 144 3.2 6.4 0.00 0.00 0.00 70 1016.2
20260507083607 13 161 1.6 6.4 0.00 0.00 0.00 74 1016.1
20260507082707 12 177 1.6 6.4 0.00 0.00 0.00 78 1016.2
20260507081807 12 194 0.0 3.2 0.00 0.00 0.00 80 1016.1
20260507080928 11 116 1.6 3.2 0.00 0.00 0.00 85 1016.1
20260507080007 10 61 1.6 3.2 0.00 0.00 0.00 88 1016.2
20260507075407 10 135 0.0 3.2 0.00 0.00 0.00 90 1016.1
20260507074507 10 135 1.6 4.8 0.00 0.00 0.00 91 1016.1
20260507073606 9 148 1.6 4.8 0.00 0.00 0.00 92 1016.1
20260507072706 8 138 0.0 3.2 0.00 0.00 0.00 94 1016.1
20260507071828 8 58 1.6 3.2 0.00 0.00 0.00 94 1016.1
20260507070907 7 45 0.0 3.2 0.00 0.00 0.00 94 1016.1
20260507070010 7 135 0.0 3.2 0.00 0.00 0.00 94 1016.1
20260507065428 7 60 0.0 3.2 0.00 0.00 0.00 94 1016.1
20260507064507 6 45 0.0 3.2 0.00 0.00 0.00 94 1016.0
20260507063607 6 0 0.0 0.0 0.00 0.00 0.00 94 1016.1
20260507062707 6 0 0.0 0.0 0.00 0.00 0.00 94 1016.0
20260507061828 6 0 0.0 0.0 0.00 0.00 0.00 95 1016.1
20260507060907 5 0 0.0 0.0 0.00 0.00 0.00 94 1016.0
20260507060007 5 0 0.0 0.0 0.00 0.00 0.00 94 1016.0
20260507055406 5 0 0.0 0.0 0.00 0.00 0.00 93 1015.9
20260507054506 4 0 0.0 0.0 0.00 0.00 0.00 94 1015.9
20260507053607 4 0 0.0 0.0 0.00 0.00 0.00 93 1015.9
20260507052707 3 0 0.0 0.0 0.00 0.00 0.00 93 1015.8
20260507051806 2 0 0.0 0.0 0.00 0.00 0.00 89 1015.7
20260507050907 2 0 0.0 0.0 0.00 0.00 0.00 88 1015.7
20260507050006 2 0 0.0 0.0 0.00 0.00 0.00 88 1015.6
20260507045406 2 0 0.0 0.0 0.00 0.00 0.00 88 1015.6
20260507044507 2 0 0.0 0.0 0.00 0.00 0.00 88 1015.5
20260507043627 2 0 0.0 0.0 0.00 0.00 0.00 88 1015.5
20260507042728 2 0 0.0 0.0 0.00 0.00 0.00 88 1015.4
20260507041806 2 0 0.0 0.0 0.00 0.00 0.00 88 1015.5
20260507040928 2 0 0.0 0.0 0.00 0.00 0.00 88 1015.6
20260507040028 2 0 0.0 0.0 0.00 0.00 0.00 87 1015.5
20260507035407 2 0 0.0 0.0 0.00 0.00 0.00 87 1015.5
20260507034507 2 0 0.0 0.0 0.00 0.00 0.00 87 1015.5
20260507033607 2 0 0.0 0.0 0.00 0.00 0.00 87 1015.5
20260507032706 3 0 0.0 0.0 0.00 0.00 0.00 91 1015.4
20260507031807 3 0 0.0 0.0 0.00 0.00 0.00 91 1015.6
20260507030906 3 0 0.0 0.0 0.00 0.00 0.00 91 1015.5
20260507030006 3 0 0.0 0.0 0.00 0.00 0.00 91 1015.5
20260507025406 3 0 0.0 0.0 0.00 0.00 0.00 91 1015.5
20260507024507 3 0 0.0 0.0 0.00 0.00 0.00 91 1015.5
20260507023606 3 0 0.0 0.0 0.00 0.00 0.00 91 1015.5
20260507022706 4 0 0.0 0.0 0.00 0.00 0.00 90 1015.5
20260507021806 4 0 0.0 0.0 0.00 0.00 0.00 90 1015.5
20260507020906 4 0 0.0 0.0 0.00 0.00 0.00 90 1015.4
20260507020007 4 180 0.0 1.6 0.00 0.00 0.00 89 1015.4
20260507015407 4 180 0.0 1.6 0.00 0.00 0.00 89 1015.3
20260507014528 4 0 0.0 0.0 0.00 0.00 0.00 88 1015.3
20260507013606 4 0 0.0 0.0 0.00 0.00 0.00 88 1015.4
20260507012707 4 0 0.0 0.0 0.00 0.00 0.00 87 1015.4
20260507011828 5 0 0.0 0.0 0.00 0.00 0.00 87 1015.4
20260507010906 5 0 0.0 0.0 0.00 0.00 0.00 86 1015.4
20260507010006 5 0 0.0 0.0 0.00 0.00 0.00 85 1015.4
20260507005406 5 0 0.0 0.0 0.00 0.00 0.00 84 1015.3
20260507004528 5 0 0.0 0.0 0.00 0.00 0.00 84 1015.3
20260507003606 5 0 0.0 0.0 0.00 0.00 0.00 84 1015.3
20260507002706 5 0 0.0 0.0 0.00 0.00 0.00 84 1015.5
20260507001806 6 0 0.0 0.0 0.00 0.00 0.00 83 1015.5
20260507000906 6 0 0.0 0.0 0.00 0.00 0.00 83 1015.4
20260507000006 6 0 0.0 0.0 0.00 0.00 0.00 83 1015.5
20260506235406 6 0 0.0 0.0 0.00 0.00 0.00 83 1015.5
20260506234506 6 0 0.0 0.0 0.00 0.00 0.00 83 1015.4
20260506233627 7 360 0.0 3.2 0.00 0.00 0.00 81 1015.3
20260506232707 7 0 0.0 0.0 0.00 0.00 0.00 81 1015.3
20260506231806 7 360 0.0 1.6 0.00 0.00 0.00 80 1015.3
20260506230906 7 315 0.0 1.6 0.00 0.00 0.00 80 1015.2
20260506230007 7 0 0.0 0.0 0.00 0.00 0.00 79 1015.3
20260506225406 8 0 0.0 0.0 0.00 0.00 0.00 78 1015.2
20260506224506 8 0 0.0 0.0 0.00 0.00 0.00 77 1015.3
20260506223606 8 0 0.0 0.0 0.00 0.00 0.00 77 1015.2
20260506222706 8 0 0.0 0.0 0.00 0.00 0.00 76 1015.1
20260506221806 8 0 0.0 0.0 0.00 0.00 0.00 75 1015.2
20260506220906 8 0 0.0 0.0 0.00 0.00 0.00 75 1015.1
20260506220006 8 53 3.2 6.4 0.00 0.00 0.00 74 1015.0
20260506215406 9 45 1.6 6.4 0.00 0.00 0.00 72 1015.0
20260506214506 9 1 1.6 3.2 0.00 0.00 0.00 72 1015.1
20260506213606 10 12 3.2 6.4 0.00 0.00 0.00 71 1015.0
20260506212706 10 36 6.4 6.4 0.00 0.00 0.00 70 1015.0
20260506211806 10 47 4.8 6.4 0.00 0.00 0.00 68 1015.0
20260506210906 10 37 4.8 6.4 0.00 0.00 0.00 66 1014.9
20260506210006 10 30 4.8 6.4 0.00 0.00 0.00 64 1014.8
20260506205406 11 46 4.8 6.4 0.00 0.00 0.00 63 1014.8
20260506204506 11 71 3.2 6.4 0.00 0.00 0.00 60 1014.8
20260506203627 11 53 3.2 6.4 0.00 0.00 0.00 59 1014.8
20260506202706 11 73 1.6 6.4 0.00 0.00 0.00 59 1014.7
20260506201806 11 36 4.8 6.4 0.00 0.00 0.00 59 1014.6
20260506200906 11 33 4.8 6.4 0.00 0.00 0.00 58 1014.6
20260506200006 11 41 3.2 3.2 0.00 0.00 0.00 57 1014.5
20260506195406 11 42 3.2 4.8 0.00 0.00 0.00 57 1014.4
20260506194506 11 35 4.8 8.0 0.00 0.00 0.00 56 1014.3
20260506193606 11 35 3.2 4.8 0.00 0.00 0.00 56 1014.2
20260506192727 11 34 4.8 4.8 0.00 0.00 0.00 56 1014.0
20260506191827 12 33 3.2 4.8 0.00 0.00 0.00 55 1014.1
20260506190906 12 24 4.8 8.0 0.00 0.00 0.00 54 1014.0
20260506190007 12 9 6.4 8.0 0.00 0.00 0.00 54 1014.0
20260506185406 12 10 6.4 8.0 0.00 0.00 0.00 54 1013.9
20260506184506 12 17 4.8 6.4 0.00 0.00 0.00 53 1014.0
20260506183606 12 40 4.8 6.4 0.00 0.00 0.00 53 1013.8
20260506182706 12 33 4.8 6.4 0.00 0.00 0.00 53 1013.8
20260506181806 12 33 4.8 6.4 0.00 0.00 0.00 53 1013.7
20260506180906 12 37 4.8 6.4 0.00 0.00 0.00 53 1013.5
20260506180027 12 36 4.8 8.0 0.00 0.00 0.00 52 1013.5
20260506175406 12 28 4.8 8.0 0.00 0.00 0.00 53 1013.4
20260506174506 12 52 4.8 8.0 0.00 0.00 0.00 52 1013.3
20260506173606 12 19 4.8 8.0 0.00 0.00 0.00 51 1013.3
20260506172706 12 22 6.4 11.3 0.00 0.00 0.00 52 1013.3
20260506171827 13 11 8.0 12.9 0.00 0.00 0.00 52 1013.3
20260506170906 13 63 6.4 12.9 0.00 0.00 0.00 53 1013.2
20260506170006 13 18 8.0 11.3 0.00 0.00 0.00 52 1013.2
20260506165406 13 352 8.0 11.3 0.00 0.00 0.00 53 1013.2
20260506164506 13 45 8.0 11.3 0.00 0.00 0.00 52 1013.2
20260506163606 13 353 8.0 11.3 0.00 0.00 0.00 52 1013.1
20260506162727 13 12 9.7 14.5 0.00 0.00 0.00 52 1013.2
20260506161806 13 17 8.0 9.7 0.00 0.00 0.00 51 1013.2
20260506160906 14 38 9.7 12.9 0.00 0.00 0.00 50 1013.2
20260506160006 15 47 11.3 17.7 0.00 0.00 0.00 50 1013.2
20260506155406 15 46 12.9 16.1 0.00 0.00 0.00 51 1013.2
20260506154527 14 54 8.0 16.1 0.00 0.00 0.00 51 1013.2
20260506153627 14 41 9.7 14.5 0.00 0.00 0.00 51 1013.3
20260506152706 14 39 9.7 14.5 0.00 0.00 0.00 51 1013.4
20260506151806 14 68 9.7 12.9 0.00 0.00 0.00 51 1013.3
20260506150906 14 49 11.3 16.1 0.00 0.00 0.00 52 1013.2
20260506150006 14 43 9.7 12.9 0.00 0.00 0.00 52 1013.3
20260506145427 14 52 9.7 12.9 0.00 0.00 0.00 51 1013.4
20260506144506 14 27 12.9 17.7 0.00 0.00 0.00 51 1013.4
20260506143606 14 42 12.9 17.7 0.00 0.00 0.00 51 1013.3
20260506142727 15 2 9.7 12.9 0.00 0.00 0.00 51 1013.3
20260506141806 15 42 12.9 16.1 0.00 0.00 0.00 46 1013.3
20260506140906 15 77 11.3 17.7 0.00 0.00 0.00 47 1013.3
20260506140006 15 75 12.9 19.3 0.00 0.00 0.00 50 1013.3
20260506135406 15 57 11.3 17.7 0.00 0.00 0.00 50 1013.3
20260506134506 15 26 12.9 17.7 0.00 0.00 0.00 50 1013.3
20260506133606 15 5 11.3 17.7 0.00 0.00 0.00 49 1013.4
20260506132706 15 16 12.9 16.1 0.00 0.00 0.00 50 1013.2
20260506131806 15 64 11.3 17.7 0.00 0.00 0.00 48 1013.1
20260506130906 15 50 9.7 17.7 0.00 0.00 0.00 45 1013.1
20260506130006 15 23 16.1 22.5 0.00 0.00 0.00 45 1013.2
20260506125406 15 45 14.5 22.5 0.00 0.00 0.00 45 1013.3
20260506124527 15 48 11.3 16.1 0.00 0.00 0.00 43 1013.3
20260506123606 15 335 11.3 24.1 0.00 0.00 0.00 43 1013.2
20260506122706 15 48 9.7 16.1 0.00 0.00 0.00 50 1013.2
20260506121806 13 30 12.9 17.7 0.00 0.00 0.00 45 1013.2
20260506120906 14 28 12.9 17.7 0.00 0.00 0.00 46 1013.3
20260506120006 15 50 12.9 17.7 0.00 0.00 0.00 43 1013.4
20260506115427 15 48 9.7 14.5 0.00 0.00 0.00 41 1013.3
20260506114527 15 26 12.9 17.7 0.00 0.00 0.00 42 1013.3
20260506113606 14 57 11.3 17.7 0.00 0.00 0.00 48 1013.4
20260506112706 14 24 11.3 16.1 0.00 0.00 0.00 46 1013.4
20260506111806 14 36 9.7 16.1 0.00 0.00 0.00 45 1013.6
20260506110906 14 88 11.3 17.7 0.00 0.00 0.00 48 1013.4
20260506110006 14 45 14.5 19.3 0.00 0.00 0.00 46 1013.4
20260506105406 14 50 12.9 19.3 0.00 0.00 0.00 46 1013.5
20260506104506 13 20 12.9 16.1 0.00 0.00 0.00 52 1013.5
20260506103606 13 356 9.7 14.5 0.00 0.00 0.00 54 1013.4
20260506102706 13 208 8.0 12.9 0.00 0.00 0.00 55 1013.4
20260506101827 13 69 11.3 14.5 0.00 0.00 0.00 55 1013.4
20260506100927 13 1 8.0 12.9 0.00 0.00 0.00 58 1013.5
20260506100006 12 39 9.7 14.5 0.00 0.00 0.00 59 1013.6
20260506095406 11 22 9.7 14.5 0.00 0.00 0.00 60 1013.6
20260506094506 11 6 9.7 14.5 0.00 0.00 0.00 59 1013.7